Dades meteomassalio
Diari Summary for Maig 2, 2017 Units:  English    Metric   Both
« Previous Day
Next Day »
Diari Semanal Mensual Anual Personalitzat
  Maxima: Minima: Mijana:
Temperatura: TemperatureC °F 4.3 °F 13.1 °F
Rosada: DewpointC °F 1.6 °F 4.8 °F
Humitat: Humidity % 41 % 59 %
Velocitat del vent: WindSpeedKMH mph 0.0 mph 4 mph
Racha vent: WindSpeedGustKMH mph - -
Vent:- - West
Pressio: PressurehPa in 1017.5 in -
Pluja: 0.0 in    
Historical Graphs
 
 
Tabular Data for Maig 2, 2017
Time Temperature Dew Point Pressure Wind Wind Speed Wind Gust Humidity Rainfall Rate (Hourly) solar Conditions
TemperatureC °F DewpointC °F PressurehPa in Calm     Humidity % HourlyPrecipMM in SolarRadiationWatts/m^2 W/m2 Conditions
00:04 8.3 °F 2.3 °F 1021.2 in Calm     66 % 0.0 in 0.0 W/m2 CLR
00:09 8.2 °F 2.2 °F 1021.6 in Calm     66 % 0.0 in 0.0 W/m2 CLR
00:14 8.1 °F 2.3 °F 1021.6 in Calm     67 % 0.0 in 0.0 W/m2 CLR
00:19 8.0 °F 2.2 °F 1021.6 in Calm     67 % 0.0 in 0.0 W/m2 CLR
00:21 7.9 °F 2.2 °F 1021.6 in Calm     67 % 0.0 in 0.0 W/m2 CLR
00:26 7.9 °F 2.1 °F 1021.6 in Calm     67 % 0.0 in 0.0 W/m2 CLR
00:31 7.8 °F 2.2 °F 1021.6 in Calm     68 % 0.0 in 0.0 W/m2 CLR
00:36 7.7 °F 2.1 °F 1021.6 in Calm     68 % 0.0 in 0.0 W/m2 CLR
00:41 7.6 °F 2.1 °F 1021.6 in Calm     68 % 0.0 in 0.0 W/m2 CLR
00:46 7.6 °F 2.0 °F 1021.6 in Calm     68 % 0.0 in 0.0 W/m2 CLR
00:51 7.6 °F 2.0 °F 1021.6 in Calm     68 % 0.0 in 0.0 W/m2 CLR
00:56 7.5 °F 1.9 °F 1021.6 in Calm     68 % 0.0 in 0.0 W/m2 CLR
01:01 7.4 °F 2.1 °F 1021.6 in Calm     69 % 0.0 in 0.0 W/m2 CLR
01:06 7.4 °F 1.9 °F 1021.6 in Calm     68 % 0.0 in 0.0 W/m2 CLR
01:11 7.4 °F 1.9 °F 1021.6 in Calm     68 % 0.0 in 0.0 W/m2 CLR
01:16 7.4 °F 1.9 °F 1021.9 in Calm     68 % 0.0 in 0.0 W/m2 CLR
01:21 7.4 °F 2.1 °F 1021.6 in Calm     69 % 0.0 in 0.0 W/m2 CLR
01:26 7.4 °F 1.9 °F 1021.6 in Calm     68 % 0.0 in 0.0 W/m2 CLR
01:31 7.4 °F 2.1 °F 1021.9 in Calm     69 % 0.0 in 0.0 W/m2 CLR
01:36 7.3 °F 2.2 °F 1021.9 in Calm     70 % 0.0 in 0.0 W/m2 CLR
01:41 7.1 °F 2.0 °F 1021.6 in Calm     70 % 0.0 in 0.0 W/m2 CLR
01:46 6.9 °F 2.0 °F 1021.9 in Calm     71 % 0.0 in 0.0 W/m2 CLR
01:51 6.8 °F 1.9 °F 1021.6 in Calm     71 % 0.0 in 0.0 W/m2 CLR
01:56 6.7 °F 1.8 °F 1021.6 in Calm     71 % 0.0 in 0.0 W/m2 CLR
02:01 6.7 °F 2.0 °F 1021.6 in Calm     72 % 0.0 in 0.0 W/m2 CLR
02:06 6.8 °F 2.1 °F 1021.6 in Calm     72 % 0.0 in 0.0 W/m2 CLR
02:11 6.7 °F 2.0 °F 1021.6 in Calm     72 % 0.0 in 0.0 W/m2 CLR
02:16 6.7 °F 2.0 °F 1021.6 in Calm     72 % 0.0 in 0.0 W/m2 CLR
02:21 6.7 °F 2.0 °F 1021.6 in Calm     72 % 0.0 in 0.0 W/m2 CLR
02:27 6.6 °F 1.9 °F 1021.6 in Calm     72 % 0.0 in 0.0 W/m2 CLR
02:32 6.4 °F 1.9 °F 1021.6 in Calm     73 % 0.0 in 0.0 W/m2 CLR
02:37 6.3 °F 1.8 °F 1021.6 in Calm     73 % 0.0 in 0.0 W/m2 CLR
02:42 6.2 °F 1.7 °F 1021.6 in Calm     73 % 0.0 in 0.0 W/m2 CLR
02:47 6.1 °F 1.8 °F 1021.6 in Calm     74 % 0.0 in 0.0 W/m2 CLR
02:52 6.0 °F 1.7 °F 1021.2 in Calm     74 % 0.0 in 0.0 W/m2 CLR
02:57 5.9 °F 1.8 °F 1021.2 in Calm     75 % 0.0 in 0.0 W/m2 CLR
03:02 5.8 °F 1.7 °F 1021.2 in Calm     75 % 0.0 in 0.0 W/m2 CLR
03:07 5.7 °F 1.8 °F 1021.2 in Calm     76 % 0.0 in 0.0 W/m2 CLR
03:12 5.7 °F 1.8 °F 1021.2 in Calm     76 % 0.0 in 0.0 W/m2 CLR
03:17 5.7 °F 1.8 °F 1021.2 in Calm     76 % 0.0 in 0.0 W/m2 CLR
03:22 5.6 °F 1.7 °F 1021.2 in Calm     76 % 0.0 in 0.0 W/m2 CLR
03:27 5.5 °F 1.8 °F 1021.2 in Calm     77 % 0.0 in 0.0 W/m2 CLR
03:32 5.5 °F 1.8 °F 1020.9 in Calm     77 % 0.0 in 0.0 W/m2 CLR
03:37 5.4 °F 1.7 °F 1020.9 in Calm     77 % 0.0 in 0.0 W/m2 CLR
03:42 5.4 °F 1.7 °F 1020.9 in Calm     77 % 0.0 in 0.0 W/m2 CLR
03:47 5.4 °F 1.8 °F 1020.9 in Calm     78 % 0.0 in 0.0 W/m2 CLR
03:52 5.3 °F 1.8 °F 1020.9 in Calm     78 % 0.0 in 0.0 W/m2 CLR
03:57 5.2 °F 1.7 °F 1020.9 in Calm     78 % 0.0 in 0.0 W/m2 CLR
04:02 5.1 °F 1.6 °F 1021.2 in Calm     78 % 0.0 in 0.0 W/m2 CLR
04:07 5.1 °F 1.8 °F 1021.2 in Calm     79 % 0.0 in 0.0 W/m2 CLR
04:12 5.1 °F 1.7 °F 1021.2 in Calm     79 % 0.0 in 0.0 W/m2 CLR
04:17 5.1 °F 1.7 °F 1021.2 in Calm     79 % 0.0 in 0.0 W/m2 CLR
04:22 5.1 °F 1.7 °F 1021.2 in Calm     79 % 0.0 in 0.0 W/m2 CLR
04:27 5.1 °F 1.7 °F 1021.2 in Calm     79 % 0.0 in 0.0 W/m2 CLR
04:32 5.1 °F 1.8 °F 1020.9 in Calm     79 % 0.0 in 0.0 W/m2 CLR
04:37 5.1 °F 1.7 °F 1020.9 in Calm     79 % 0.0 in 0.0 W/m2 CLR
04:42 5.1 °F 1.9 °F 1020.9 in Calm     80 % 0.0 in 0.0 W/m2 CLR
04:47 5.1 °F 1.8 °F 1020.9 in Calm     79 % 0.0 in 0.0 W/m2 CLR
04:52 5.1 °F 1.7 °F 1020.9 in Calm     79 % 0.0 in 0.0 W/m2 CLR
04:57 4.9 °F 1.8 °F 1020.9 in Calm     80 % 0.0 in 0.0 W/m2 CLR
05:02 4.8 °F 1.8 °F 1020.9 in Calm     81 % 0.0 in 0.0 W/m2 CLR
05:07 4.9 °F 1.9 °F 1020.9 in Calm     81 % 0.0 in 0.0 W/m2 CLR
05:12 4.8 °F 1.8 °F 1020.9 in Calm     81 % 0.0 in 0.0 W/m2 CLR
05:17 4.8 °F 1.8 °F 1021.2 in Calm     81 % 0.0 in 0.0 W/m2 CLR
05:22 4.8 °F 1.8 °F 1021.2 in Calm     81 % 0.0 in 0.0 W/m2 CLR
05:27 4.8 °F 1.8 °F 1020.9 in Calm     81 % 0.0 in 0.0 W/m2 CLR
05:32 4.9 °F 1.9 °F 1020.9 in Calm     81 % 0.0 in 0.0 W/m2 CLR
05:37 4.9 °F 1.8 °F 1021.2 in Calm     80 % 0.0 in 0.0 W/m2 CLR
05:42 4.9 °F 1.9 °F 1020.9 in Calm     81 % 0.0 in 0.0 W/m2 CLR
05:47 4.9 °F 1.9 °F 1020.9 in Calm     81 % 0.0 in 0.0 W/m2 CLR
05:52 4.8 °F 1.8 °F 1020.9 in Calm     81 % 0.0 in 0.0 W/m2 CLR
05:57 4.8 °F 1.8 °F 1020.9 in Calm     81 % 0.0 in 0.0 W/m2 CLR
06:02 4.8 °F 1.8 °F 1021.2 in Calm     81 % 0.0 in 0.0 W/m2 CLR
06:07 4.8 °F 1.8 °F 1021.2 in Calm     81 % 0.0 in 0.0 W/m2 CLR
06:12 4.8 °F 1.8 °F 1021.2 in Calm     81 % 0.0 in 0.0 W/m2 CLR
06:17 4.7 °F 1.7 °F 1021.2 in Calm     81 % 0.0 in 0.0 W/m2 CLR
06:22 4.7 °F 1.7 °F 1020.9 in Calm     81 % 0.0 in 0.0 W/m2 CLR
06:27 4.7 °F 1.8 °F 1020.9 in Calm     82 % 0.0 in 0.0 W/m2 CLR
06:32 4.6 °F 1.8 °F 1021.2 in Calm     82 % 0.0 in 0.0 W/m2 CLR
06:37 4.6 °F 1.8 °F 1021.2 in Calm     82 % 0.0 in 0.0 W/m2 CLR
06:42 4.6 °F 1.7 °F 1021.2 in Calm     82 % 0.0 in 0.0 W/m2 CLR
06:47 4.5 °F 1.7 °F 1021.2 in Calm     82 % 0.0 in 0.0 W/m2 OVC
06:52 4.4 °F 1.6 °F 1021.2 in Calm     82 % 0.0 in 0.0 W/m2 OVC
06:57 4.3 °F 1.7 °F 1021.2 in Calm     83 % 0.0 in 0.0 W/m2 OVC
07:02 4.3 °F 1.7 °F 1021.2 in Calm     83 % 0.0 in 5.0 W/m2 OVC
07:07 4.3 °F 1.7 °F 1021.2 in Calm     83 % 0.0 in 9.0 W/m2 BKN
07:12 4.3 °F 1.8 °F 1021.6 in Calm     84 % 0.0 in 14.0 W/m2 BKN
07:17 4.3 °F 1.7 °F 1021.6 in Calm     83 % 0.0 in 21.0 W/m2 BKN
07:22 4.3 °F 1.9 °F 1021.6 in Calm     84 % 0.0 in 25.0 W/m2 BKN
07:27 4.3 °F 1.9 °F 1021.6 in Calm     84 % 0.0 in 33.0 W/m2 BKN
07:32 4.3 °F 1.9 °F 1021.6 in Calm     84 % 0.0 in 35.0 W/m2 BKN
07:37 4.4 °F 1.9 °F 1021.6 in Calm     84 % 0.0 in 39.0 W/m2 BKN
07:42 4.5 °F 2.1 °F 1021.6 in Calm     84 % 0.0 in 42.0 W/m2 BKN
07:47 4.6 °F 2.1 °F 1021.6 in Calm     84 % 0.0 in 58.0 W/m2 SCT
07:52 4.8 °F 2.3 °F 1021.6 in Calm     84 % 0.0 in 84.0 W/m2 FEW
07:58 5.1 °F 2.4 °F 1021.6 in Calm     83 % 0.0 in 90.0 W/m2 FEW
08:03 5.3 °F 2.7 °F 1021.6 in Calm     83 % 0.0 in 118.0 W/m2 CLR
08:08 5.7 °F 2.8 °F 1021.9 in Calm     82 % 0.0 in 127.0 W/m2 CLR
08:13 6.1 °F 2.9 °F 1021.6 in Calm     80 % 0.0 in 128.0 W/m2 CLR
08:18 6.3 °F 3.1 °F 1021.6 in Calm     80 % 0.0 in 162.0 W/m2 CLR
08:23 6.7 °F 3.3 °F 1021.6 in Calm     79 % 0.0 in 144.0 W/m2 CLR
08:28 7.1 °F 3.5 °F 1021.6 in Calm     78 % 0.0 in 179.0 W/m2 CLR
08:33 7.6 °F 3.8 °F 1021.6 in Calm     77 % 0.0 in 207.0 W/m2 CLR
08:38 8.1 °F 4.1 °F 1021.6 in Calm     76 % 0.0 in 236.0 W/m2 CLR
08:43 8.7 °F 4.1 °F 1021.6 in Calm     73 % 0.0 in 225.0 W/m2 CLR
08:48 9.1 °F 4.1 °F 1021.6 in Calm     71 % 0.0 in 271.0 W/m2 CLR
08:53 9.7 °F 4.4 °F 1021.6 in Calm     70 % 0.0 in 281.0 W/m2 CLR
08:58 10.1 °F 4.7 °F 1021.6 in Calm     69 % 0.0 in 276.0 W/m2 CLR
09:00 10.3 °F 4.7 °F 1021.6 in Calm     68 % 0.0 in 292.0 W/m2 CLR
09:05 10.8 °F 4.7 °F 1021.6 in Calm     66 % 0.0 in 267.0 W/m2 CLR
09:10 11.3 °F 5.0 °F 1021.6 in Calm     65 % 0.0 in 248.0 W/m2 CLR
09:15 11.8 °F 5.2 °F 1021.6 in Calm     64 % 0.0 in 264.0 W/m2 CLR
09:20 12.1 °F 5.3 °F 1021.6 in Calm     63 % 0.0 in 246.0 W/m2 CLR
09:25 12.4 °F 5.3 °F 1021.6 in Calm     62 % 0.0 in 227.0 W/m2 CLR
09:30 12.7 °F 5.3 °F 1021.6 in Calm     61 % 0.0 in 236.0 W/m2 CLR
09:35 12.7 °F 5.1 °F 1021.6 in Calm     60 % 0.0 in 246.0 W/m2 CLR
09:40 12.7 °F 5.2 °F 1021.6 in Calm     60 % 0.0 in 260.0 W/m2 CLR
09:45 12.8 °F 5.3 °F 1021.6 in Calm     60 % 0.0 in 297.0 W/m2 CLR
09:50 13.1 °F 5.2 °F 1021.2 in Calm     59 % 0.0 in 279.0 W/m2 CLR
09:55 13.4 °F 5.1 °F 1021.2 in Calm     57 % 0.0 in 255.0 W/m2 CLR
10:00 13.9 °F 4.2 °F 1021.2 in West 9.7 mph 9.7 mph 52 % 0.0 in 269.0 W/m2 CLR
10:05 14.1 °F 4.1 °F 1021.2 in West 7.4 mph 7.4 mph 51 % 0.0 in 302.0 W/m2 CLR
10:10 14.3 °F 4.1 °F 1021.2 in WSW 3.7 mph 3.7 mph 50 % 0.0 in 313.0 W/m2 CLR
10:15 14.6 °F 4.2 °F 1021.2 in WSW 5.6 mph 5.6 mph 50 % 0.0 in 348.0 W/m2 CLR
10:20 14.7 °F 4.3 °F 1021.2 in SW 5.6 mph 5.6 mph 50 % 0.0 in 388.0 W/m2 CLR
10:25 14.9 °F 4.3 °F 1021.2 in SW 8.0 mph 8.0 mph 49 % 0.0 in 446.0 W/m2 CLR
10:30 15.1 °F 4.4 °F 1021.2 in West 8.0 mph 8.0 mph 49 % 0.0 in 476.0 W/m2 CLR
10:35 15.4 °F 4.2 °F 1021.2 in NW 8.0 mph 8.0 mph 47 % 0.0 in 464.0 W/m2 CLR
10:40 15.6 °F 4.0 °F 1021.2 in WNW 8.0 mph 8.0 mph 46 % 0.0 in 450.0 W/m2 CLR
10:45 15.7 °F 4.1 °F 1020.9 in NW 5.6 mph 5.6 mph 46 % 0.0 in 436.0 W/m2 CLR
10:50 15.9 °F 4.3 °F 1020.9 in NW 9.3 mph 9.3 mph 46 % 0.0 in 448.0 W/m2 CLR
10:55 16.1 °F 4.4 °F 1020.9 in NW 9.3 mph 9.3 mph 46 % 0.0 in 461.0 W/m2 CLR
11:00 16.2 °F 5.2 °F 1021.2 in WNW 9.7 mph 9.7 mph 48 % 0.0 in 561.0 W/m2 CLR
11:05 16.4 °F 5.3 °F 1020.9 in NW 13.0 mph 13.0 mph 48 % 0.0 in 536.0 W/m2 CLR
11:10 16.4 °F 5.4 °F 1020.9 in NNW 9.3 mph 9.3 mph 48 % 0.0 in 520.0 W/m2 CLR
11:15 16.6 °F 5.8 °F 1020.9 in WNW 7.4 mph 7.4 mph 49 % 0.0 in 615.0 W/m2 CLR
11:20 16.8 °F 6.1 °F 1020.9 in NNW 9.7 mph 9.7 mph 49 % 0.0 in 612.0 W/m2 CLR
11:25 17.1 °F 6.0 °F 1020.9 in North 9.3 mph 9.3 mph 48 % 0.0 in 686.0 W/m2 CLR
11:30 17.3 °F 5.9 °F 1020.9 in NNW 11.3 mph 11.3 mph 47 % 0.0 in 679.0 W/m2 CLR
11:35 17.3 °F 5.8 °F 1020.9 in NW 16.1 mph 16.1 mph 47 % 0.0 in 582.0 W/m2 CLR
11:40 17.4 °F 5.7 °F 1020.9 in NNW 16.7 mph 16.7 mph 46 % 0.0 in 689.0 W/m2 CLR
11:41 17.4 °F 5.7 °F 1020.9 in North 11.1 mph 11.1 mph 46 % 0.0 in 664.0 W/m2 CLR
11:46 17.5 °F 5.4 °F 1020.9 in WNW 7.4 mph 7.4 mph 45 % 0.0 in 613.0 W/m2 CLR
11:51 17.6 °F 5.8 °F 1020.5 in NW 13.0 mph 13.0 mph 46 % 0.0 in 534.0 W/m2 CLR
11:56 17.7 °F 5.9 °F 1020.5 in NNE 5.6 mph 5.6 mph 46 % 0.0 in 619.0 W/m2 CLR
12:01 17.9 °F 6.2 °F 1020.5 in NNW 3.7 mph 3.7 mph 46 % 0.0 in 455.0 W/m2 CLR
12:06 17.7 °F 5.6 °F 1020.5 in Calm     45 % 0.0 in 489.0 W/m2 CLR
12:11 17.8 °F 6.3 °F 1020.5 in West 1.6 mph 1.6 mph 47 % 0.0 in 527.0 W/m2 CLR
12:16 17.9 °F 5.4 °F 1020.5 in Calm     44 % 0.0 in 401.0 W/m2 CLR
12:21 17.9 °F 5.8 °F 1020.5 in NNW 18.5 mph 18.5 mph 45 % 0.0 in 396.0 W/m2 CLR
12:26 17.8 °F 6.1 °F 1020.5 in NW 18.5 mph 18.5 mph 46 % 0.0 in 462.0 W/m2 CLR
12:31 17.7 °F 5.9 °F 1020.5 in WNW 18.5 mph 18.5 mph 46 % 0.0 in 434.0 W/m2 CLR
12:36 17.6 °F 5.8 °F 1020.5 in NW 9.3 mph 9.3 mph 46 % 0.0 in 468.0 W/m2 CLR
12:41 17.7 °F 5.6 °F 1020.2 in North 18.5 mph 18.5 mph 45 % 0.0 in 466.0 W/m2 CLR
12:46 17.8 °F 5.7 °F 1020.2 in North 1.9 mph 1.9 mph 45 % 0.0 in 512.0 W/m2 CLR
12:51 18.0 °F 5.2 °F 1020.2 in WNW 3.7 mph   43 % 0.0 in 575.0 W/m2 CLR
12:56 18.2 °F 5.8 °F 1020.2 in NW 19.3 mph 19.3 mph 44 % 0.0 in 754.0 W/m2 CLR
13:01 18.4 °F 5.3 °F 1020.2 in West 5.6 mph 5.6 mph 42 % 0.0 in 935.0 W/m2 CLR
13:06 18.9 °F 5.7 °F 1019.9 in NNW 14.8 mph 14.8 mph 42 % 0.0 in 1048.0 W/m2 CLR
13:11 19.3 °F 5.7 °F 1019.9 in North 14.8 mph 14.8 mph 41 % 0.0 in 1150.0 W/m2 CLR
13:16 19.5 °F 5.9 °F 1019.9 in North 14.8 mph 14.8 mph 41 % 0.0 in 693.0 W/m2 CLR
13:21 19.2 °F 5.7 °F 1019.9 in WNW 9.3 mph   41 % 0.0 in 554.0 W/m2 CLR
13:26 19.3 °F 6.4 °F 1019.9 in North 5.6 mph 5.6 mph 43 % 0.0 in 745.0 W/m2 CLR
13:31 19.5 °F 6.2 °F 1019.5 in North 16.7 mph 16.7 mph 42 % 0.0 in 575.0 W/m2 CLR
13:36 19.3 °F 6.8 °F 1019.5 in NNW 22.5 mph 22.5 mph 44 % 0.0 in 573.0 W/m2 CLR
13:41 19.2 °F 6.6 °F 1019.5 in NW 13.0 mph 13.0 mph 44 % 0.0 in 531.0 W/m2 CLR
13:46 19.2 °F 7.3 °F 1019.5 in NW 13.0 mph 13.0 mph 46 % 0.0 in 552.0 W/m2 CLR
13:51 19.4 °F 6.6 °F 1019.5 in WNW 3.7 mph 3.7 mph 43 % 0.0 in 594.0 W/m2 CLR
13:56 19.4 °F 6.9 °F 1019.5 in NW 16.7 mph 16.7 mph 44 % 0.0 in 599.0 W/m2 CLR
13:58 19.4 °F 6.9 °F 1019.5 in NW 13.0 mph 13.0 mph 44 % 0.0 in 559.0 W/m2 CLR
14:03 19.5 °F 6.9 °F 1019.5 in Calm     44 % 0.0 in 541.0 W/m2 CLR
14:08 19.7 °F 6.7 °F 1019.2 in Calm     43 % 0.0 in 594.0 W/m2 CLR
14:13 19.8 °F 6.8 °F 1019.2 in Calm     43 % 0.0 in 744.0 W/m2 CLR
14:18 20.0 °F 7.1 °F 1019.2 in North 18.5 mph 18.5 mph 43 % 0.0 in 740.0 W/m2 CLR
14:23 19.9 °F 6.6 °F 1019.2 in NNW 16.7 mph 16.7 mph 42 % 0.0 in 512.0 W/m2 CLR
14:28 19.7 °F 6.4 °F 1019.2 in NNW 13.0 mph 13.0 mph 42 % 0.0 in 439.0 W/m2 CLR
14:33 19.7 °F 6.4 °F 1019.2 in ENE 3.7 mph 3.7 mph 42 % 0.0 in 510.0 W/m2 CLR
14:38 19.6 °F 6.3 °F 1019.2 in NE 3.7 mph 3.7 mph 42 % 0.0 in 494.0 W/m2 CLR
14:43 19.6 °F 6.3 °F 1019.2 in WNW 17.7 mph 17.7 mph 42 % 0.0 in 420.0 W/m2 CLR
14:48 19.7 °F 6.4 °F 1019.2 in NW 18.5 mph 18.5 mph 42 % 0.0 in 397.0 W/m2 CLR
14:53 19.4 °F 6.2 °F 1019.2 in NNW 1.9 mph   42 % 0.0 in 373.0 W/m2 CLR
14:58 19.3 °F 6.4 °F 1019.2 in NNW 3.7 mph 3.7 mph 43 % 0.0 in 366.0 W/m2 CLR
15:03 19.4 °F 6.5 °F 1019.2 in NW 16.1 mph 16.1 mph 43 % 0.0 in 397.0 W/m2 CLR
15:08 19.6 °F 6.3 °F 1019.2 in NNW 18.5 mph 18.5 mph 42 % 0.0 in 392.0 W/m2 CLR
15:13 19.4 °F 6.1 °F 1019.2 in NW 20.4 mph 20.4 mph 42 % 0.0 in 352.0 W/m2 CLR
15:18 19.2 °F 6.3 °F 1019.2 in NW 16.7 mph 16.7 mph 43 % 0.0 in 290.0 W/m2 CLR
15:23 19.2 °F 6.7 °F 1019.2 in NNW 16.7 mph 16.7 mph 44 % 0.0 in 279.0 W/m2 CLR
15:28 19.0 °F 6.4 °F 1019.2 in NNW 14.8 mph 14.8 mph 44 % 0.0 in 260.0 W/m2 CLR
15:33 19.0 °F 6.4 °F 1018.8 in NNW 18.5 mph 18.5 mph 44 % 0.0 in 250.0 W/m2 CLR
15:38 18.9 °F 6.7 °F 1018.8 in NNW 18.5 mph 18.5 mph 45 % 0.0 in 258.0 W/m2 CLR
15:43 18.9 °F 6.7 °F 1018.8 in NW 16.1 mph 16.1 mph 45 % 0.0 in 234.0 W/m2 CLR
15:48 18.8 °F 6.3 °F 1018.8 in North 14.8 mph 14.8 mph 44 % 0.0 in 246.0 W/m2 CLR
15:58 19.0 °F 6.8 °F 1018.8 in Calm     45 % 0.0 in 309.0 W/m2 CLR
16:03 19.2 °F 6.9 °F 1018.8 in NW 14.8 mph 14.8 mph 45 % 0.0 in 294.0 W/m2 CLR
16:08 19.1 °F 6.9 °F 1018.8 in NW 5.6 mph 5.6 mph 45 % 0.0 in 313.0 W/m2 CLR
16:13 19.2 °F 7.0 °F 1018.8 in Calm   0.5 mph 45 % 0.0 in 343.0 W/m2 CLR
16:18 19.3 °F 7.1 °F 1018.8 in NNW 5.6 mph 5.6 mph 45 % 0.0 in 348.0 W/m2 CLR
16:23 19.4 °F 7.2 °F 1018.8 in WNW 14.8 mph 14.8 mph 45 % 0.0 in 378.0 W/m2 CLR
16:33 19.7 °F 7.1 °F 1018.5 in NNW 11.1 mph 11.1 mph 44 % 0.0 in 301.0 W/m2 CLR
16:38 19.5 °F 7.2 °F 1018.5 in WNW 20.4 mph 20.4 mph 45 % 0.0 in 234.0 W/m2 CLR
16:43 19.3 °F 7.1 °F 1018.5 in West 14.8 mph 14.8 mph 45 % 0.0 in 185.0 W/m2 CLR
16:48 19.3 °F 7.4 °F 1018.5 in WSW 7.4 mph 7.4 mph 46 % 0.0 in 163.0 W/m2 CLR
16:53 19.1 °F 6.9 °F 1018.5 in West 16.7 mph 16.7 mph 45 % 0.0 in 156.0 W/m2 CLR
16:58 18.9 °F 7.0 °F 1018.5 in West 3.7 mph 3.7 mph 46 % 0.0 in 163.0 W/m2 CLR
17:03 18.8 °F 7.3 °F 1018.5 in Calm     47 % 0.0 in 181.0 W/m2 CLR
17:08 18.9 °F 7.4 °F 1018.5 in WNW 5.6 mph 5.6 mph 47 % 0.0 in 211.0 W/m2 CLR
17:13 19.1 °F 7.2 °F 1018.5 in Calm     46 % 0.0 in 236.0 W/m2 CLR
17:18 19.2 °F 7.3 °F 1018.5 in Calm     46 % 0.0 in 225.0 W/m2 CLR
17:23 19.3 °F 7.4 °F 1018.5 in Calm     46 % 0.0 in 220.0 W/m2 CLR
17:28 19.4 °F 7.2 °F 1018.2 in SW 5.6 mph 5.6 mph 45 % 0.0 in 220.0 W/m2 CLR
17:33 19.3 °F 7.4 °F 1018.2 in SW 9.3 mph 9.3 mph 46 % 0.0 in 246.0 W/m2 CLR
17:39 19.1 °F 7.2 °F 1018.2 in SSW 5.6 mph 5.6 mph 46 % 0.0 in 264.0 W/m2 CLR
17:44 19.2 °F 7.3 °F 1018.2 in SSW 5.6 mph 5.6 mph 46 % 0.0 in 292.0 W/m2 CLR
17:49 19.3 °F 7.4 °F 1018.2 in South 5.6 mph 5.6 mph 46 % 0.0 in 306.0 W/m2 CLR
17:54 19.4 °F 7.5 °F 1018.2 in WSW 1.9 mph 1.9 mph 46 % 0.0 in 251.0 W/m2 CLR
17:59 19.5 °F 7.6 °F 1017.8 in SW 7.4 mph 7.4 mph 46 % 0.0 in 220.0 W/m2 CLR
18:04 19.5 °F 7.6 °F 1018.2 in SW 8.0 mph 8.0 mph 46 % 0.0 in 230.0 W/m2 CLR
18:09 19.4 °F 7.5 °F 1017.8 in SW 3.7 mph 3.7 mph 46 % 0.0 in 529.0 W/m2 CLR
18:14 19.8 °F 7.8 °F 1017.8 in SSW 5.6 mph 5.6 mph 46 % 0.0 in 513.0 W/m2 CLR
18:19 20.2 °F 7.5 °F 1017.8 in WSW 5.6 mph 5.6 mph 44 % 0.0 in 473.0 W/m2 CLR
18:24 20.4 °F 7.7 °F 1017.8 in West 14.8 mph 14.8 mph 44 % 0.0 in 492.0 W/m2 CLR
18:29 20.4 °F 7.7 °F 1017.8 in SW 6.4 mph 6.4 mph 44 % 0.0 in 480.0 W/m2 CLR
18:34 20.1 °F 7.4 °F 1017.8 in SW 9.3 mph 9.3 mph 44 % 0.0 in 132.0 W/m2 CLR
18:39 19.7 °F 7.4 °F 1017.8 in SW 11.1 mph 11.1 mph 45 % 0.0 in 134.0 W/m2 CLR
18:44 19.8 °F 7.5 °F 1017.8 in WSW 13.0 mph 13.0 mph 45 % 0.0 in 125.0 W/m2 CLR
18:49 19.6 °F 7.3 °F 1017.8 in WSW 9.7 mph 9.7 mph 45 % 0.0 in 118.0 W/m2 CLR
18:54 19.6 °F 7.6 °F 1017.8 in SW 5.6 mph 5.6 mph 46 % 0.0 in 127.0 W/m2 CLR
18:59 19.6 °F 7.6 °F 1017.8 in SSW 16.7 mph 16.7 mph 46 % 0.0 in 272.0 W/m2 CLR
19:04 19.7 °F 7.4 °F 1017.5 in SW 9.7 mph 9.7 mph 45 % 0.0 in 141.0 W/m2 CLR
19:09 19.7 °F 7.4 °F 1017.5 in WSW 13.0 mph 13.0 mph 45 % 0.0 in 135.0 W/m2 CLR
19:14 19.6 °F 7.3 °F 1017.5 in SW 14.8 mph 14.8 mph 45 % 0.0 in 179.0 W/m2 CLR
19:19 19.6 °F 7.3 °F 1017.5 in SW 11.1 mph 11.1 mph 45 % 0.0 in 121.0 W/m2 CLR
19:24 19.6 °F 7.3 °F 1017.5 in SW 11.1 mph 11.1 mph 45 % 0.0 in 148.0 W/m2 CLR
19:29 19.6 °F 7.3 °F 1017.5 in SW 8.0 mph 8.0 mph 45 % 0.0 in 88.0 W/m2 CLR
19:34 19.7 °F 7.4 °F 1017.5 in SW 5.6 mph 5.6 mph 45 % 0.0 in 214.0 W/m2 CLR
19:39 19.9 °F 7.3 °F 1017.5 in SW 3.7 mph 3.7 mph 44 % 0.0 in 213.0 W/m2 CLR
19:44 20.2 °F 7.6 °F 1017.5 in Calm     44 % 0.0 in 202.0 W/m2 CLR
19:49 20.3 °F 7.3 °F 1017.5 in SW 3.7 mph 3.7 mph 43 % 0.0 in 79.0 W/m2 CLR
19:54 20.1 °F 7.1 °F 1017.5 in Calm     43 % 0.0 in 72.0 W/m2 CLR
19:59 20.1 °F 7.4 °F 1017.5 in Calm     44 % 0.0 in 134.0 W/m2 CLR
20:04 20.2 °F 7.6 °F 1017.5 in Calm     44 % 0.0 in 81.0 W/m2 FEW
20:09 20.1 °F 7.4 °F 1017.5 in Calm     44 % 0.0 in 49.0 W/m2 SCT
20:14 19.9 °F 7.0 °F 1017.5 in NW 14.5 mph 14.5 mph 43 % 0.0 in 49.0 W/m2 SCT
20:19 19.8 °F 6.8 °F 1017.5 in NNW 5.6 mph 5.6 mph 43 % 0.0 in 46.0 W/m2 SCT
20:24 19.7 °F 6.7 °F 1017.5 in Calm     43 % 0.0 in 33.0 W/m2 BKN
20:29 19.5 °F 6.6 °F 1017.5 in NW 9.3 mph 9.3 mph 43 % 0.0 in 26.0 W/m2 BKN
20:34 19.3 °F 6.7 °F 1017.5 in NW 5.6 mph 5.6 mph 44 % 0.0 in 19.0 W/m2 BKN
20:39 19.1 °F 6.9 °F 1017.5 in NW 1.9 mph 1.9 mph 45 % 0.0 in 16.0 W/m2 BKN
20:44 18.9 °F 6.7 °F 1017.5 in Calm     45 % 0.0 in 12.0 W/m2 BKN
20:49 18.7 °F 6.8 °F 1017.5 in Calm     46 % 0.0 in 9.0 W/m2 BKN
20:54 18.5 °F 6.9 °F 1017.5 in Calm     47 % 0.0 in 5.0 W/m2 OVC
20:59 18.1 °F 6.9 °F 1017.8 in Calm     48 % 0.0 in 0.0 W/m2 OVC
21:04 17.7 °F 6.9 °F 1017.8 in Calm     49 % 0.0 in 0.0 W/m2 CLR
21:09 17.4 °F 6.9 °F 1017.8 in Calm     50 % 0.0 in 0.0 W/m2 CLR
21:14 17.2 °F 6.9 °F 1017.8 in Calm     51 % 0.0 in 0.0 W/m2 CLR
21:19 16.9 °F 7.0 °F 1017.8 in Calm     52 % 0.0 in 0.0 W/m2 CLR
21:24 16.6 °F 7.0 °F 1017.8 in Calm     53 % 0.0 in 0.0 W/m2 CLR
21:29 16.3 °F 6.9 °F 1018.2 in Calm     54 % 0.0 in 0.0 W/m2 CLR
21:34 16.1 °F 7.0 °F 1018.2 in Calm     55 % 0.0 in 0.0 W/m2 CLR
21:39 16.1 °F 6.7 °F 1018.2 in Calm     54 % 0.0 in 0.0 W/m2 CLR
21:44 16.1 °F 7.0 °F 1018.2 in Calm     55 % 0.0 in 0.0 W/m2 CLR
21:49 15.9 °F 6.8 °F 1018.5 in Calm     55 % 0.0 in 0.0 W/m2 CLR
21:54 15.8 °F 7.0 °F 1018.5 in Calm     56 % 0.0 in 0.0 W/m2 CLR
21:59 15.6 °F 7.4 °F 1018.5 in Calm     58 % 0.0 in 0.0 W/m2 CLR
22:04 15.3 °F 7.1 °F 1018.5 in Calm     58 % 0.0 in 0.0 W/m2 CLR
22:09 15.1 °F 7.2 °F 1018.5 in Calm     59 % 0.0 in 0.0 W/m2 CLR
22:14 14.9 °F 7.2 °F 1018.5 in Calm     60 % 0.0 in 0.0 W/m2 CLR
22:19 14.7 °F 7.3 °F 1018.8 in Calm     61 % 0.0 in 0.0 W/m2 CLR
22:24 14.5 °F 7.3 °F 1018.8 in Calm     62 % 0.0 in 0.0 W/m2 CLR
22:29 14.3 °F 7.2 °F 1018.8 in Calm     62 % 0.0 in 0.0 W/m2 CLR
22:30 14.3 °F 7.2 °F 1018.8 in Calm     62 % 0.0 in 0.0 W/m2 CLR
22:35 14.2 °F 7.2 °F 1018.8 in Calm     63 % 0.0 in 0.0 W/m2 CLR
22:40 14.0 °F 7.3 °F 1018.8 in Calm     64 % 0.0 in 0.0 W/m2 CLR
22:45 13.9 °F 7.4 °F 1018.8 in Calm     65 % 0.0 in 0.0 W/m2 CLR
22:50 13.8 °F 7.4 °F 1018.8 in Calm     65 % 0.0 in 0.0 W/m2 CLR
22:55 13.7 °F 7.4 °F 1018.8 in Calm     66 % 0.0 in 0.0 W/m2 CLR
23:00 13.5 °F 7.3 °F 1018.8 in Calm     66 % 0.0 in 0.0 W/m2 CLR
23:05 13.3 °F 7.3 °F 1018.8 in Calm     67 % 0.0 in 0.0 W/m2 CLR
23:10 13.2 °F 7.2 °F 1018.8 in Calm     67 % 0.0 in 0.0 W/m2 CLR
23:15 13.1 °F 7.1 °F 1019.2 in Calm     67 % 0.0 in 0.0 W/m2 CLR
23:20 13.0 °F 7.2 °F 1019.2 in Calm     68 % 0.0 in 0.0 W/m2 CLR
23:25 12.8 °F 7.1 °F 1019.2 in Calm     68 % 0.0 in 0.0 W/m2 CLR
23:30 12.8 °F 7.2 °F 1019.2 in Calm     69 % 0.0 in 0.0 W/m2 CLR
23:35 12.7 °F 7.1 °F 1019.2 in Calm     69 % 0.0 in 0.0 W/m2 CLR
23:40 12.5 °F 6.9 °F 1019.2 in Calm     69 % 0.0 in 0.0 W/m2 CLR
23:45 12.4 °F 7.1 °F 1019.2 in Calm     70 % 0.0 in 0.0 W/m2 CLR
23:50 12.2 °F 6.9 °F 1019.2 in Calm     70 % 0.0 in 0.0 W/m2 CLR
23:55 12.1 °F 7.0 °F 1019.2 in Calm     71 % 0.0 in 0.0 W/m2 CLR
Lo Temps de Massalio
Compliments of Weather Underground - 1.25 mb